Weather home | Your neighborhood | Marine | Radar | Hurricane | Almanac

Daily weather history


Statistical History for Wednesday, February 27, 2013

St. Petersburg Airport, FL


  Actual Average Record
Temperature
Mean Temperature -  
Max Temperature 72 °F 86 °F (1997)
Min Temperature 55 °F 39 °F (1974)
Growing Degree Days 14 (Base - )  
Moisture
Dew Point   
Average Humidity    
Maximum Humidity    
Minimum Humidity    
Precipitation
Precipitation - - ()
Wind
Wind Speed   
Max Wind Speed   
Max Gust Speed   
Visibility   
Events   
Averages and records for this station are not official NWS values.
Key: T is trace of precipitation, MM is missing value
Source: NWS Daily Summary
Seasonal Weather Averages
Time(EST)TemperatureDew PointHumidity Sea Level Pressure Visibility Wind DirectionWind SpeedGust SpeedPrecipitationEventsConditions
12:26 AM 64.4 °F 59.0 °F 83% 29.91 in 10.0 miles WSW 5.8 mph - N/A   Mostly Cloudy
12:53 AM 64.9 °F 59.0 °F 81% 29.91 in 10.0 miles WSW 5.8 mph - N/A   Overcast
1:53 AM 64.9 °F 57.9 °F 78% 29.91 in 10.0 miles West 8.1 mph - N/A   Mostly Cloudy
2:53 AM 64.9 °F 57.9 °F 78% 29.90 in 10.0 miles West 4.6 mph - N/A   Partly Cloudy
3:53 AM 64.0 °F 57.9 °F 80% 29.90 in 10.0 miles WNW 5.8 mph - N/A   Scattered Clouds
4:53 AM 64.9 °F 57.9 °F 78% 29.91 in 10.0 miles NW 9.2 mph - N/A   Mostly Cloudy
5:53 AM 64.0 °F 57.0 °F 78% 29.92 in 10.0 miles WNW 5.8 mph - N/A   Mostly Cloudy
6:53 AM 62.1 °F 55.9 °F 80% 29.93 in 10.0 miles NW 4.6 mph - N/A   Mostly Cloudy
7:53 AM 64.9 °F 57.9 °F 78% 29.95 in 10.0 miles NNW 10.4 mph - N/A   Scattered Clouds
8:40 AM 64.4 °F 55.4 °F 73% 29.97 in 10.0 miles NNW 11.5 mph - N/A   Mostly Cloudy
8:53 AM 66.0 °F 55.9 °F 70% 29.98 in 10.0 miles NNW 11.5 mph - N/A   Mostly Cloudy
9:53 AM 68.0 °F 55.9 °F 65% 29.99 in 10.0 miles NNW 10.4 mph - N/A   Mostly Cloudy
10:53 AM 68.0 °F 55.0 °F 63% 30.00 in 10.0 miles NNW 9.2 mph - N/A   Mostly Cloudy
11:26 AM 69.8 °F 55.4 °F 60% 30.00 in 10.0 miles NNW 10.4 mph - N/A   Scattered Clouds
11:53 AM 69.1 °F 54.0 °F 58% 29.99 in 10.0 miles NNW 9.2 mph - N/A   Scattered Clouds
12:53 PM 70.0 °F 55.0 °F 59% 29.99 in 10.0 miles NW 12.7 mph - N/A   Partly Cloudy
1:53 PM 70.0 °F 54.0 °F 57% 29.95 in 10.0 miles NW 6.9 mph - N/A   Clear
2:53 PM 70.0 °F 53.1 °F 55% 29.94 in 10.0 miles West 9.2 mph - N/A   Mostly Cloudy
3:53 PM 66.9 °F 53.1 °F 61% 29.95 in 10.0 miles NNW 10.4 mph - N/A   Overcast
4:53 PM 64.9 °F 52.0 °F 63% 29.96 in 10.0 miles NW 8.1 mph - N/A   Clear
5:53 PM 62.1 °F 51.1 °F 67% 29.96 in 10.0 miles NW 6.9 mph - N/A   Clear
6:53 PM 60.1 °F 51.1 °F 72% 29.97 in 10.0 miles NNW 10.4 mph - N/A   Clear
7:53 PM 60.1 °F 51.1 °F 72% 29.99 in 10.0 miles NNW 11.5 mph - N/A   Clear
8:53 PM 60.1 °F 51.1 °F 72% 29.99 in 10.0 miles NW 8.1 mph - N/A   Clear
9:53 PM 59.0 °F 51.1 °F 75% 29.99 in 10.0 miles WNW 5.8 mph - N/A   Clear
10:53 PM 59.0 °F 51.1 °F 75% 30.00 in 10.0 miles NW 9.2 mph - N/A   Clear
11:53 PM 59.0 °F 51.1 °F 75% 29.99 in 10.0 miles WNW 6.9 mph - N/A   Clear
ADVERTISEMENT
Enter city or zip code to search weather conditions:


  • 490 First Avenue South
  • St. Petersburg, FL 33701
  • 727-893-8111